Tracking 19720 objects as of 26-Jun-2019
HD Live streaming from Space Station
objects crossing your sky now

SL-24 DEB

Track SL-24 DEB now!
10-day predictions


NORAD ID: 33318
Int'l Code: 2008-040G
Perigee: 586.8 km
Apogee: 604.1 km
Inclination: 98.1 °
Period: 96.4 minutes
Semi major axis: 6966 km
RCS: 5.1176 m2 (large)
Launch date: August 29, 2008
Source: Commonwealth of Independent States (former USSR) (CIS)
Launch site: TYURATAM MISSILE AND SPACE COMPLEX (TTMTR)

Note: This is SATELLITE DEBRIS
aabbcc
Your satellite tracking list
Your tracking list is empty




NASA's NSSDC Master Catalog

Two Line Element Set (TLE):
1 33318U 08040G   19175.68614151  .00000288  00000-0  33533-4 0  9994
2 33318  98.1413 341.8558 0012398 343.5088  16.5725 14.93094573587410
Source of the keplerian elements: AFSPC